Thunder Bay, Ontario

1:25 PM EST on January 16, 2018 (GMT -0500)
Thunder Bay

Weather History for CYQT - August, 2013

Change the Weather History Date:

Thursday, August 22, 2013

  Actual Average Record
Temperature  
Mean Temperature 64 °F -  
Max Temperature 78 °F 28 °F 84 °F (2001)
Min Temperature 50 °F 20 °F 41 °F (2011)
Degree Days  
Heating Degree Days 1    
Growing Degree Days 14 (Base 50)    
Moisture  
Dew Point 52 °F    
Average Humidity 67    
Maximum Humidity 94    
Minimum Humidity 29    
Precipitation  
Precipitation 0.00 in 0.02 in - ()
Sea Level Pressure  
Sea Level Pressure 30.08 in    
Wind  
Wind Speed 5 mph ()    
Max Wind Speed 9 mph    
Max Gust Speed -    
Visibility 17.2 miles    
Events      
Averages and records for this station are not official NWS values.
T = Trace of Precipitation, MM = Missing Value Source: Averaged Metar Reports

Daily Weather History Graph

Daily Weather History Graph

Search for Another Location

Airport or City:

Trip Planner

Search our weather history database for the weather conditions in past years. The results will help you decide how hot, cold, wet, or windy it might be!

Date:

Astronomy

Aug. 22, 2013 Rise Set
Actual Time 7:01 AM EDT 8:57 PM EDT
Civil Twilight 6:27 AM EDT 9:31 PM EDT
Nautical Twilight 5:46 AM EDT 10:12 PM EDT
Astronomical Twilight 5:00 AM EDT 10:58 PM EDT
Moon 9:25 PM EDT (8/22) 9:03 AM EDT (8/22)
Length of Visible Light 15h 03m
Length of Day
13h 56m
Waning Gibbous, 97% of the Moon is Illuminated
Aug 22
Waning Gibbous
Aug 28
Last Quarter
Sep 5
New
Sep 12
First Quarter
Sep 19
Full

Hourly Weather History & Observations

Time (EDT) Temp. Dew Point Humidity Pressure Visibility Wind Dir Wind Speed Gust Speed Precip Events Conditions
12:00 AM 59.0 °F 50.0 °F 72% 30.00 in 15.0 mi West 4.6 mph - N/A   Clear
1:00 AM 53.6 °F 50.0 °F 88% 30.01 in 15.0 mi SW 5.8 mph - N/A   Clear
2:00 AM 52 °F 49 °F 88% 30.01 in 10 mi WSW 4.6 mph - -  
2:00 AM 51.8 °F 50.0 °F 94% 30.00 in 15.0 mi WSW 4.6 mph - N/A   Clear
3:00 AM 51.8 °F 50.0 °F 94% 30.00 in 15.0 mi SW 6.9 mph - N/A   Clear
4:00 AM 51.8 °F 50.0 °F 94% 30.02 in 15.0 mi WSW 4.6 mph - N/A   Scattered Clouds
5:00 AM 51.8 °F 50.0 °F 94% 30.02 in 15.0 mi WSW 4.6 mph - N/A   Mostly Cloudy
6:00 AM 50.0 °F 48.2 °F 94% 30.04 in 15.0 mi WSW 3.5 mph - N/A   Scattered Clouds
7:00 AM 51.8 °F 48.2 °F 88% 30.07 in 20.0 mi SSW 9.2 mph - N/A   Partly Cloudy
8:00 AM 53.6 °F 50.0 °F 88% 30.09 in 20.0 mi SW 2.3 mph - N/A   Partly Cloudy
9:00 AM 59.0 °F 51.8 °F 77% 30.11 in 20.0 mi SSW 8.1 mph - N/A   Clear
10:00 AM 64.4 °F 53.6 °F 68% 30.11 in 20.0 mi SW 5.8 mph - N/A   Clear
11:00 AM 69.8 °F 55.4 °F 60% 30.12 in 20.0 mi WSW 3.5 mph - N/A   Clear
12:00 PM 73.4 °F 50.0 °F 44% 30.12 in 20.0 mi North 5.8 mph - N/A   Partly Cloudy
1:00 PM 73.4 °F 50.0 °F 44% 30.12 in 20.0 mi NW 5.8 mph - N/A   Partly Cloudy
2:00 PM 75 °F 49 °F 29% 30.12 in 10 mi North 9.2 mph - -  
2:00 PM 75.2 °F 50.0 °F 41% 30.11 in 20.0 mi NNE 8.1 mph - N/A   Partly Cloudy
3:00 PM 77.0 °F 48.2 °F 36% 30.11 in 20.0 mi NW 4.6 mph - N/A   Scattered Clouds
4:00 PM 75.2 °F 50.0 °F 41% 30.11 in 20.0 mi WNW 8.1 mph - N/A   Mostly Cloudy
5:00 PM 75.2 °F 51.8 °F 44% 30.11 in 20.0 mi WNW 8.1 mph - N/A   Mostly Cloudy
6:00 PM 75.2 °F 51.8 °F 44% 30.11 in 20.0 mi NW 4.6 mph - N/A   Mostly Cloudy
7:00 PM 73.4 °F 57.2 °F 57% 30.12 in 20.0 mi Variable 2.3 mph - N/A   Overcast
8:00 PM 70 °F 57 °F 54% 30.12 in 10 mi East 2.3 mph - -   Overcast
8:00 PM 69.8 °F 57.2 °F 64% 30.12 in 20.0 mi Variable 2.3 mph - N/A   Mostly Cloudy
9:00 PM 68.0 °F 55.4 °F 64% 30.13 in 20.0 mi NNE 3.5 mph - N/A   Mostly Cloudy
10:00 PM 62.6 °F 53.6 °F 72% 30.14 in 15.0 mi North 2.3 mph - N/A   Scattered Clouds
11:00 PM 57.2 °F 53.6 °F 88% 30.15 in 15.0 mi Variable 2.3 mph - N/A   Partly Cloudy